Date String (YYYY-MM-DD hh:mm:ss) UTC,Instrument flags,Ambient pressure (hPa),Sample flow (lpm),Bypass flow (lpm),Sample temperature (°C),Ambient temperature (°C),ASC tube jacket temperature (°C),LED temperature (°C),Box temperature (°C),Sample RH (%),Span deviation,Mass concentration (μg/m³),Mass concentration (μg/m³),Mass concentration (μg/m³)
DateTimeUTC,F1_M11,P_M11,Q1_M11,Q2_M11,T1_M11,T2_M11,T3_M11,T4_M11,T5_M11,U1_M11,ZSPAN_M11,X0_M11,X2_M11,X1_M11
2022-05-08 09:00:00,,0816.0,5.00,0.00,24.7,24.0,00.0,33.8,26.5,21.5,0000.0,0024.90,0008.54,0003.51
2022-05-08 09:01:00,,0816.1,5.00,0.00,24.7,24.0,00.0,33.8,26.5,21.5,0000.0,0024.63,0008.59,0003.50
2022-05-08 09:02:00,,0816.1,4.99,0.00,24.7,24.0,00.0,33.8,26.5,21.5,-000.5,0023.87,0008.71,0003.48
2022-05-08 09:03:00,,0816.1,5.01,0.00,24.7,24.0,00.0,33.8,26.5,21.5,-001.0,0023.58,0008.65,0003.47
2022-05-08 09:04:00,,0816.1,4.98,0.00,24.7,24.0,00.0,33.8,26.5,21.5,0000.0,0022.36,0008.42,0003.44
2022-05-08 09:05:00,,0816.1,5.01,0.00,24.7,24.1,00.0,33.8,26.5,21.4,0000.0,0022.01,0008.28,0003.42
2022-05-08 09:06:00,,0816.1,5.00,0.00,24.7,24.1,00.0,33.8,26.5,21.3,0000.0,0022.41,0008.14,0003.40
2022-05-08 09:07:00,,0816.0,4.99,0.00,24.7,24.1,00.0,33.8,26.5,21.4,0000.0,0021.89,0008.02,0003.36
2022-05-08 09:08:00,,0816.1,5.00,0.00,24.7,24.1,00.0,33.8,26.6,21.5,0000.0,0021.54,0007.97,0003.36
2022-05-08 09:09:00,,0815.7,4.99,0.00,24.7,24.0,00.0,33.8,26.5,21.5,0000.0,0021.97,0007.97,0003.35
2022-05-08 09:10:00,,0815.6,5.00,0.00,24.7,24.0,00.0,33.7,26.5,21.0,0000.0,0022.21,0007.94,0003.36
2022-05-08 09:11:00,,0815.6,5.00,0.00,24.7,24.1,00.0,33.7,26.5,21.5,0000.0,0022.52,0007.95,0003.35
2022-05-08 09:12:00,,0815.6,5.00,0.00,24.7,24.0,00.0,33.7,26.5,21.6,0000.0,0022.01,0007.80,0003.36
2022-05-08 09:13:00,,0815.6,4.99,0.00,24.7,24.0,00.0,33.7,26.5,21.7,0000.0,0022.66,0007.66,0003.36
2022-05-08 09:14:00,,0815.6,5.01,0.00,24.7,24.0,00.0,33.7,26.5,21.7,0000.0,0023.20,0007.67,0003.36
2022-05-08 09:15:00,,0815.7,4.99,0.00,24.7,24.0,00.0,33.7,26.5,21.7,0000.0,0023.35,0007.73,0003.35
2022-05-08 09:16:00,,0815.7,5.02,0.00,24.7,24.0,00.0,33.7,26.5,21.8,0000.0,0023.16,0007.63,0003.34
2022-05-08 09:17:00,,0815.7,5.00,0.00,24.7,24.0,00.0,33.7,26.5,21.8,0000.0,0023.20,0007.66,0003.33
2022-05-08 09:18:00,,0815.8,5.01,0.00,24.7,24.0,00.0,33.7,26.5,21.4,0000.0,0023.59,0007.70,0003.35
2022-05-08 09:19:00,,0815.7,5.00,0.00,24.6,24.0,00.0,33.7,26.5,21.6,0000.0,0023.66,0007.70,0003.35
2022-05-08 09:20:00,,0815.7,5.00,0.00,24.6,23.9,00.0,33.7,26.4,21.6,0000.0,0023.88,0007.70,0003.35
2022-05-08 09:21:00,,0815.8,5.00,0.00,24.6,23.9,00.0,33.7,26.4,21.7,0000.0,0023.56,0007.70,0003.34
2022-05-08 09:22:00,,0815.8,4.99,0.00,24.6,23.9,00.0,33.7,26.4,21.8,0000.0,0023.22,0007.71,0003.34
2022-05-08 09:23:00,,0815.9,5.01,0.00,24.6,23.9,00.0,33.7,26.4,21.8,0000.0,0023.40,0007.76,0003.33
2022-05-08 09:24:00,,0815.8,5.00,0.00,24.6,23.9,00.0,33.7,26.4,21.9,0000.0,0022.89,0007.74,0003.33
2022-05-08 09:25:00,,0815.8,4.99,0.00,24.6,23.9,00.0,33.7,26.3,22.0,0000.0,0022.77,0007.70,0003.31
2022-05-08 09:26:00,,0815.8,5.01,0.00,24.5,23.9,00.0,33.6,26.3,22.0,0000.0,0022.95,0007.71,0003.31
2022-05-08 09:27:00,,0815.8,4.99,0.00,24.5,23.8,00.0,33.6,26.3,22.0,0000.0,0023.53,0007.78,0003.34
2022-05-08 09:28:00,,0815.7,5.01,0.00,24.6,23.8,00.0,33.6,26.4,22.0,0000.0,0024.20,0007.96,0003.35
2022-05-08 09:29:00,,0815.7,4.99,0.00,24.6,23.8,00.0,33.6,26.4,22.0,0000.0,0023.51,0007.99,0003.36
2022-05-08 09:30:00,,0815.8,4.99,0.00,24.5,23.8,00.0,33.6,26.3,21.7,0000.0,0023.39,0007.94,0003.35
2022-05-08 09:31:00,,0815.8,5.01,0.00,24.5,23.8,00.0,33.6,26.4,21.7,0000.0,0022.97,0007.96,0003.35
2022-05-08 09:32:00,,0815.9,5.00,0.00,24.5,23.8,00.0,33.6,26.4,21.5,0000.0,0023.42,0008.08,0003.36
2022-05-08 09:33:00,,0815.9,5.01,0.00,24.5,23.8,00.0,33.6,26.4,21.5,0000.0,0024.93,0008.20,0003.38
2022-05-08 09:34:00,,0815.9,4.99,0.00,24.5,23.7,00.0,33.6,26.3,21.3,0000.0,0025.39,0008.28,0003.41
2022-05-08 09:35:00,,0815.9,5.00,0.00,24.5,23.8,00.0,33.6,26.4,21.1,0000.0,0025.64,0008.44,0003.43
2022-05-08 09:36:00,,0815.8,5.01,0.00,24.5,23.8,00.0,33.6,26.3,20.9,0000.0,0024.99,0008.54,0003.47
2022-05-08 09:37:00,,0815.8,5.00,0.00,24.5,23.8,00.0,33.6,26.3,20.9,0000.0,0025.11,0008.61,0003.50
2022-05-08 09:38:00,,0815.8,5.01,0.00,24.5,23.8,00.0,33.6,26.3,20.9,0000.0,0025.77,0008.78,0003.50
2022-05-08 09:39:00,,0815.8,5.00,0.00,24.5,23.7,00.0,33.6,26.4,20.8,0000.0,0025.84,0008.74,0003.55
2022-05-08 09:40:00,,0815.8,4.99,0.00,24.5,23.8,00.0,33.6,26.3,20.8,0000.0,0026.43,0008.89,0003.57
2022-05-08 09:41:00,,0815.8,5.00,0.00,24.5,23.7,00.0,33.6,26.3,20.7,0000.0,0027.07,0009.03,0003.60
2022-05-08 09:42:00,,0815.8,4.99,0.00,24.5,23.7,00.0,33.6,26.3,20.7,0000.0,0027.72,0009.13,0003.63
2022-05-08 09:43:00,,0815.8,5.01,0.00,24.5,23.8,00.0,33.6,26.3,20.7,0000.0,0028.37,0009.25,0003.66
2022-05-08 09:44:00,,0815.8,4.99,0.00,24.5,23.8,00.0,33.5,26.3,20.7,0000.0,0027.64,0009.25,0003.67
2022-05-08 09:45:00,,0815.8,5.01,0.00,24.5,23.8,00.0,33.5,26.3,20.8,0000.0,0027.26,0009.19,0003.68
2022-05-08 09:46:00,,0815.8,5.00,0.00,24.5,23.7,00.0,33.5,26.3,20.8,0000.0,0027.84,0009.25,0003.69
2022-05-08 09:47:00,,0815.8,4.99,0.00,24.5,23.7,00.0,33.5,26.3,20.9,0000.0,0029.11,0009.39,0003.70
2022-05-08 09:48:00,,0815.8,5.01,0.00,24.5,23.7,00.0,33.5,26.3,20.9,0000.0,0030.29,0009.44,0003.71
2022-05-08 09:49:00,,0815.8,4.99,0.00,24.4,23.6,00.0,33.5,26.3,21.0,0000.0,0030.59,0009.51,0003.73
2022-05-08 09:50:00,,0815.7,5.02,0.00,24.4,23.6,00.0,33.5,26.3,21.0,0000.0,0030.08,0009.64,0003.74
2022-05-08 09:51:00,,0815.7,4.99,0.00,24.4,23.7,00.0,33.5,26.3,21.0,0000.0,0030.14,0009.72,0003.76
2022-05-08 09:52:00,,0815.7,5.00,0.00,24.4,23.6,00.0,33.5,26.3,20.9,0000.0,0030.35,0009.80,0003.76
2022-05-08 09:53:00,,0815.8,5.00,0.00,24.4,23.6,00.0,33.5,26.3,20.8,0000.0,0030.18,0009.86,0003.77
2022-05-08 09:54:00,,0815.8,5.00,0.00,24.4,23.6,00.0,33.5,26.3,20.8,0000.0,0029.66,0009.84,0003.76
2022-05-08 09:55:00,,0815.8,5.01,0.00,24.4,23.7,00.0,33.5,26.3,20.7,0000.0,0029.68,0009.92,0003.77
2022-05-08 09:56:00,,0815.9,5.00,0.00,24.4,23.7,00.0,33.5,26.3,20.7,0000.0,0030.74,0010.06,0003.77
2022-05-08 09:57:00,,0815.8,5.00,0.00,24.4,23.7,00.0,33.5,26.3,20.8,0000.0,0031.58,0010.03,0003.78
2022-05-08 09:58:00,,0815.8,5.00,0.00,24.4,23.7,00.0,33.5,26.2,20.8,0000.0,0030.76,0010.05,0003.78
2022-05-08 09:59:00,,0815.9,4.99,0.00,24.4,23.7,00.0,33.5,26.2,20.9,0000.0,0030.03,0010.00,0003.79
